Weather History for KBAX - August, 2014

Change the Weather History Date:

Tuesday, August 26, 2014

  Actual Average (KP58) Record (KP58)
Temperature  
Mean Temperature 74 °F -  
Max Temperature 83 °F 72 °F 87 °F (2012)
Min Temperature 64 °F 58 °F 55 °F (2010)
Cooling Degree Days 8    
Growing Degree Days 24 (Base 50)    
Moisture  
Dew Point 69 °F    
Average Humidity 86    
Maximum Humidity 100    
Minimum Humidity 69    
Precipitation  
Precipitation 0.00 in - - ()
Sea Level Pressure  
Sea Level Pressure 30.04 in    
Wind  
Wind Speed 7 mph (SW)    
Max Wind Speed 12 mph    
Max Gust Speed 17 mph    
Visibility 8 miles    
Events      
Averages and records for this station are not official NWS values.
T = Trace of Precipitation, MM = Missing Value Source: NWS Daily Summary

Daily Weather History Graph

Daily Weather History Graph

Search for Another Location

Airport or City:

Trip Planner

Search our weather history database for the weather conditions in past years. The results will help you decide how hot, cold, wet, or windy it might be!

Date:

Astronomy

Aug. 26, 2014 Rise Set
Actual Time 6:48 AM EDT 8:17 PM EDT
Civil Twilight 6:18 AM EDT 8:47 PM EDT
Nautical Twilight 5:42 AM EDT 9:24 PM EDT
Astronomical Twilight 5:03 AM EDT 10:02 PM EDT
Moon 7:51 AM EDT (8/26) 8:34 PM EDT (8/26)
Length of Visible Light 14h 29m
Length of Day
13h 29m
New Moon, 1% of the Moon is Illuminated
Aug 26
New Moon
Sep 2
First Quarter
Sep 8
Full
Sep 15
Last Quarter
Sep 24
New

Hourly Weather History & Observations

Time (EDT) Temp. Heat Index Dew Point Humidity Pressure Visibility Wind Dir Wind Speed Gust Speed Precip Events Conditions
12:15 AM 70.7 °F - 68.0 °F 91% 30.02 in 10.0 mi South 9.2 mph - N/A   Clear
12:36 AM 71.1 °F - 68.0 °F 90% 30.03 in 10.0 mi SSW 6.9 mph - N/A   Clear
12:56 AM 71.2 °F - 68.2 °F 90% 30.04 in 10.0 mi South 9.2 mph - N/A   Scattered Clouds
1:15 AM 71.6 °F - 68.2 °F 89% 30.04 in 10.0 mi South 8.1 mph - N/A   Mostly Cloudy
1:36 AM 70.7 °F - 68.2 °F 92% 30.04 in 7.0 mi South 6.9 mph - N/A   Scattered Clouds
1:56 AM 70.7 °F - 68.2 °F 92% 30.03 in 7.0 mi South 8.1 mph - N/A   Scattered Clouds
2:15 AM 70.7 °F - 68.4 °F 92% 30.03 in 7.0 mi South 9.2 mph - N/A   Clear
2:36 AM 70.9 °F - 68.5 °F 92% 30.02 in 7.0 mi SSW 6.9 mph - N/A   Clear
2:56 AM 70.7 °F - 68.4 °F 92% 30.02 in 7.0 mi SSW 8.1 mph - N/A   Clear
3:15 AM 70.2 °F - 68.4 °F 94% 30.03 in 7.0 mi SSW 8.1 mph - N/A   Clear
3:36 AM 69.6 °F - 68.2 °F 95% 30.03 in 5.0 mi SSW 5.8 mph - N/A   Clear
3:56 AM 69.1 °F - 68.0 °F 96% 30.03 in 5.0 mi SW 3.5 mph - N/A   Clear
4:15 AM 68.4 °F - 68.0 °F 99% 30.03 in 5.0 mi SSW 3.5 mph - N/A   Clear
4:36 AM 67.5 °F - 67.5 °F 100% 30.03 in 4.0 mi SSW 3.5 mph - N/A   Clear
4:56 AM 67.5 °F - 67.5 °F 100% 30.03 in 4.0 mi SSW 4.6 mph - N/A   Clear
5:16 AM 67.1 °F - 67.1 °F 100% 30.03 in 4.0 mi South 3.5 mph - N/A   Clear
5:36 AM 66.6 °F - 66.6 °F 100% 30.03 in 4.0 mi South 4.6 mph - N/A   Clear
5:56 AM 66.2 °F - 66.2 °F 100% 30.03 in 3.0 mi SSW 4.6 mph - N/A   Clear
6:16 AM 66.2 °F - 66.2 °F 100% 30.03 in 3.0 mi South 3.5 mph - N/A   Clear
6:36 AM 65.7 °F - 65.7 °F 100% 30.04 in 2.5 mi Calm Calm - N/A   Clear
6:56 AM 65.5 °F - 65.5 °F 100% 30.04 in 1.8 mi Calm Calm - N/A   Mist
7:16 AM 65.1 °F - 65.1 °F 100% 30.04 in 1.5 mi Calm Calm - N/A   Mist
7:36 AM 65.8 °F - 65.8 °F 100% 30.04 in 1.5 mi Calm Calm - N/A   Mist
7:56 AM 68.4 °F - 68.4 °F 100% 30.06 in 2.0 mi Calm Calm - N/A   Clear
8:16 AM 68.7 °F - 68.7 °F 100% 30.07 in 2.0 mi Calm Calm - N/A   Clear
8:36 AM 70.7 °F - 70.7 °F 100% 30.05 in 3.0 mi SSW 5.8 mph - N/A   Clear
8:56 AM 72.3 °F - 71.8 °F 98% 30.06 in 4.0 mi SW 5.8 mph - N/A   Clear
9:16 AM 73.9 °F - 72.3 °F 95% 30.06 in 5.0 mi SW 5.8 mph - N/A   Scattered Clouds
9:36 AM 74.3 °F - 71.2 °F 90% 30.06 in 7.0 mi West 9.2 mph - N/A   Scattered Clouds
9:56 AM 75.2 °F - 71.4 °F 88% 30.07 in 7.0 mi West 10.4 mph - N/A   Scattered Clouds
10:16 AM 76.1 °F - 71.2 °F 85% 30.05 in 7.0 mi West 8.1 mph - N/A   Clear
10:36 AM 77.0 °F - 70.9 °F 81% 30.05 in 10.0 mi West 9.2 mph - N/A   Clear
10:55 AM 77.4 °F - 70.3 °F 79% 30.05 in 10.0 mi WSW 8.1 mph - N/A   Clear
11:16 AM 79.0 °F - 70.5 °F 75% 30.06 in 10.0 mi West 8.1 mph - N/A   Scattered Clouds
11:36 AM 80.2 °F 83.2 °F 69.4 °F 69% 30.07 in 10.0 mi West 10.4 mph - N/A   Clear
11:55 AM 77.9 °F - 69.4 °F 75% 30.07 in 10.0 mi West 9.2 mph - N/A   Clear
12:16 PM 78.1 °F - 69.3 °F 74% 30.06 in 10.0 mi West 9.2 mph - N/A   Clear
12:36 PM 77.9 °F - 69.6 °F 76% 30.05 in 10.0 mi WSW 5.8 mph - N/A   Clear
12:56 PM 77.5 °F - 69.6 °F 76% 30.05 in 10.0 mi WSW 5.8 mph - N/A   Scattered Clouds
1:16 PM 79.0 °F - 70.7 °F 76% 30.05 in 10.0 mi WSW 8.1 mph - N/A   Scattered Clouds
1:36 PM 81.5 °F 85.7 °F 71.4 °F 71% 30.05 in 10.0 mi West 10.4 mph - N/A   Clear
1:56 PM 82.4 °F 87.2 °F 71.6 °F 70% 30.05 in 10.0 mi West 6.9 mph 16.1 mph N/A   Clear
2:16 PM 82.2 °F 87.1 °F 72.0 °F 71% 30.05 in 10.0 mi WSW 11.5 mph - N/A   Clear
2:36 PM 82.2 °F 87.1 °F 72.0 °F 71% 30.05 in 10.0 mi West 9.2 mph 17.3 mph N/A   Scattered Clouds
2:56 PM 83.3 °F 89.0 °F 72.7 °F 70% 30.05 in 10.0 mi WSW 10.4 mph 16.1 mph N/A   Scattered Clouds
3:16 PM 83.5 °F 89.1 °F 72.5 °F 69% 30.04 in 10.0 mi West 10.4 mph - N/A   Scattered Clouds
3:36 PM 82.8 °F 88.2 °F 72.3 °F 71% 30.04 in 10.0 mi WSW 9.2 mph - N/A   Scattered Clouds
3:56 PM 83.1 °F 89.2 °F 73.4 °F 72% 30.03 in 10.0 mi WSW 10.4 mph - N/A   Mostly Cloudy
4:16 PM 81.9 °F 87.0 °F 73.0 °F 74% 30.02 in 10.0 mi WSW 8.1 mph - N/A   Mostly Cloudy
4:36 PM 81.7 °F 87.1 °F 73.4 °F 76% 30.02 in 10.0 mi WSW 6.9 mph - N/A   Scattered Clouds
4:56 PM 81.5 °F 86.7 °F 73.4 °F 76% 30.02 in 10.0 mi SW 6.9 mph - N/A   Clear
5:16 PM 80.8 °F 85.6 °F 73.4 °F 78% 30.01 in 10.0 mi WSW 5.8 mph - N/A   Clear
5:36 PM 80.1 °F 84.4 °F 73.4 °F 80% 30.02 in 10.0 mi SW 6.9 mph - N/A   Clear
5:56 PM 79.7 °F - 73.6 °F 81% 30.03 in 10.0 mi WSW 8.1 mph - N/A   Scattered Clouds
6:16 PM 79.2 °F - 73.4 °F 82% 30.03 in 10.0 mi WSW 6.9 mph - N/A   Mostly Cloudy
6:36 PM 79.7 °F - 73.8 °F 82% 30.03 in 10.0 mi WSW 8.1 mph - N/A   Mostly Cloudy
6:56 PM 78.8 °F - 73.4 °F 83% 30.03 in 10.0 mi WSW 9.2 mph - N/A   Scattered Clouds
7:16 PM 78.4 °F - 73.4 °F 84% 30.03 in 10.0 mi WSW 8.1 mph - N/A   Clear
7:36 PM 77.9 °F - 73.6 °F 86% 30.03 in 10.0 mi WSW 4.6 mph - N/A   Clear
7:56 PM 77.4 °F - 73.8 °F 89% 30.03 in 10.0 mi Calm Calm - N/A   Clear
8:17 PM 69.1 °F - 63.5 °F 82% 30.04 in 10.0 mi NE 11.5 mph - N/A   Mostly Cloudy
8:36 PM 68.0 °F - 62.1 °F 81% 30.04 in 10.0 mi NE 8.1 mph - N/A   Overcast
8:56 PM 67.3 °F - 61.7 °F 82% 30.05 in 10.0 mi NE 5.8 mph - N/A   Mostly Cloudy
9:17 PM 66.7 °F - 61.0 °F 82% 30.05 in 10.0 mi NE 4.6 mph - N/A   Overcast
9:36 PM 66.2 °F - 60.8 °F 83% 30.06 in 10.0 mi NNE 3.5 mph - N/A   Mostly Cloudy
9:56 PM 65.3 °F - 60.6 °F 85% 30.06 in 10.0 mi North 4.6 mph - N/A   Mostly Cloudy
10:17 PM 64.6 °F - 60.8 °F 88% 30.07 in 10.0 mi NE 3.5 mph - N/A   Mostly Cloudy
10:36 PM 64.4 °F - 60.8 °F 88% 30.07 in 10.0 mi NE 5.8 mph - N/A   Mostly Cloudy
10:56 PM 65.3 °F - 61.0 °F 86% 30.07 in 10.0 mi NE 5.8 mph - N/A   Overcast
11:16 PM 65.3 °F - 60.8 °F 85% 30.08 in 10.0 mi NE 3.5 mph - N/A   Mostly Cloudy
11:36 PM 64.8 °F - 60.4 °F 86% 30.08 in 10.0 mi NE 5.8 mph - N/A   Overcast
11:56 PM 65.3 °F - 60.4 °F 84% 30.09 in 10.0 mi NE 5.8 mph - N/A   Overcast